SV1IW Athens current weather conditions

sailwx.info

Wind from 224 at 4 knots gusting 7

Air temperature 29.4° C
Dewpoint 6.1° C

Last reported at 2016-May-31 09:30 UTC.
Time now 2016-May-31 10:05 UTC

Location: N 37°58' E 023°43'.
View on Google Maps.

See reports from other nearby stations

  
Tides and Currents Weather Stations Pressure Air Temp Water Temp Dewpoint Dewpoint Depression Visibility Wind Speed Wind Dir Waves Ship Positions
date/time (UTC)wind fromknots sea level pressurealtimeterstation pressurevisibilityair tempwater tempwave heightnotes
2016-May-31 09:30 224 4 gusting 7 29.4
2016-May-31 09:00 025 4 gusting 10 29.4
2016-May-31 08:30 261 3 gusting 6 28.9
2016-May-31 08:00 244 4 gusting 6 27.8
2016-May-30 23:30 234 22.8
2016-May-30 23:01 232 23.3
2016-May-30 22:30 232 22.8
2016-May-30 22:00 223 2 gusting 6 22.8
2016-May-30 21:30 209 2 gusting 6 23.3
2016-May-30 21:00 292 3 gusting 6 23.3
2016-May-30 20:30 212 3 gusting 10 23.9
2016-May-30 20:01 230 4 gusting 6 23.9
2016-May-30 19:30 220 2 gusting 7 24.4
2016-May-30 19:01 237 2 gusting 7 24.4
2016-May-30 18:30 216 4 gusting 6 24.4
2016-May-30 18:02 235 4 gusting 12 25.0
2016-May-30 17:30 246 5 gusting 11 25.6
2016-May-30 17:00 218 6 gusting 10 26.1
2016-May-30 16:30 233 5 gusting 11 26.7
2016-May-30 16:00 188 4 gusting 10 28.9
2016-May-30 15:30 187 5 gusting 12 36.7
2016-May-30 15:00 191 6 gusting 10 37.8
2016-May-30 14:30 192 6 gusting 10 34.4
2016-May-30 14:00 195 5 gusting 10 33.9
2016-May-30 13:30 232 6 gusting 10 32.8
2016-May-30 13:00 240 6 gusting 11 31.7
2016-May-30 12:30 198 4 gusting 7 29.4
2016-May-30 12:00 162 3 gusting 7 28.3
2016-May-30 11:30 198 4 gusting 6 28.9
2016-May-30 11:00 201 4 gusting 6 28.9
2016-May-30 00:00 201 22.2
2016-May-29 23:30 202 22.8
2016-May-29 23:00 200 22.8
2016-May-29 22:30 202 0 gusting 5 22.8
2016-May-29 22:00 202 2 gusting 4 22.8
2016-May-29 21:30 201 1 gusting 5 22.8
2016-May-29 21:00 201 2 gusting 5 22.8
2016-May-29 20:30 202 1 gusting 6 23.3
2016-May-29 20:00 202 2 gusting 6 23.3
2016-May-29 19:30 202 2 gusting 4 23.3
2016-May-29 19:00 200 0 gusting 6 23.3
2016-May-29 18:30 185 2 gusting 6 23.9
2016-May-29 18:01 201 4 gusting 6 24.4
2016-May-29 17:30 200 4 gusting 6 24.4
2016-May-29 17:00 196 5 gusting 8 25.0
2016-May-29 16:30 171 4 gusting 11 26.1
2016-May-29 16:00 186 5 gusting 12 27.8
2016-May-29 15:30 168 5 gusting 11 35.0
2016-May-29 15:00 054 4 gusting 11 35.6
2016-May-29 14:30 218 6 gusting 10 31.7
2016-May-29 14:00 232 5 gusting 11 30.6
2016-May-29 13:30 209 5 gusting 11 30.0
2016-May-29 13:00 233 6 gusting 12 27.8
2016-May-29 12:30 184 7 gusting 13 30.0
2016-May-29 12:00 191 5 gusting 10 28.3
2016-May-29 11:30 193 5 gusting 10 27.8
2016-May-29 11:00 199 5 gusting 7 27.2
2016-May-29 10:30 193 3 gusting 6 27.2
2016-May-29 10:00 201 4 gusting 7 26.7